Flag for Liechtenstein Weather past 2 weeks in Vaduz, Liechtenstein

Now
62 °F

Fog.


Feels Like: 62 °F
Forecast: 57 / 82 °F
Wind: 5 mph from Southeast

Location: Vaduz

Current Time: Sep 16, 2014 at 3:29:25 AM

Latest Report: Sep 16, 2014 at 2:00 AM


Visibility: 5 mi

Pressure: 29.99 "Hg

Humidity: 76%

Dew point: 54 °F

Location of VaduzLocation

Historic Weather in Vaduz — Graph

°F

Vaduz temperature yesterday

Maximum temperature yesterday: 71 °F (at 3:00 PM)
Minimum temperature yesterday: 51 °F (at 7:00 AM)
Average temperature yesterday: 60 °F

Past Weeks' High & Low Weather Summary

 TemperatureHumidityPressure
High77 °F (Sep 7, 4:00 PM)98% (Sep 2, 4:00 AM)30.20 "Hg (Sep 2, 4:00 AM)
Low50 °F (Sep 2, 5:00 AM)53% (Sep 11, 5:00 PM)29.85 "Hg (Sep 6, 3:00 PM)
Average60 °F82%30.02 "Hg
* Reported Sep 1 2:00 AM — Sep 16 2:00 AM, Vaduz, Weather by CustomWeather, © 2014

Note: Actual official high and low records may vary slightly from our data, if they occured in-between our weather recording intervals... More about our weather records

Advertising

Vaduz weather history for previous 24 hours

 ConditionsComfort  
Time TempWeatherWind HumidityBarometerVisibility
2:00 AM
Sep 16
62 °FFog.5 mph76%29.99 "Hg5 mi
1:00 AM63 °FMild.7 mph73%29.98 "HgN/A
12:00 AM62 °FMild.5 mph80%29.99 "HgN/A
11:00 PM
Sep 15
59 °FFog.2 mph85%30.00 "Hg5 mi
10:00 PM57 °FCool.No wind94%29.99 "HgN/A
9:00 PM61 °FCool.2 mph88%29.97 "HgN/A
8:00 PM62 °FFog.No wind88%29.96 "Hg5 mi
7:00 PM65 °FMild.3 mph75%29.94 "HgN/A
6:00 PM67 °FMild.3 mph71%29.93 "HgN/A
5:00 PM68 °FScattered clouds.3 mph67%29.92 "Hg4 mi
4:00 PM71 °FMild.8 mph62%29.91 "HgN/A
3:00 PM71 °FMild.9 mph65%29.92 "HgN/A
2:00 PM71 °FScattered clouds.7 mph64%29.94 "Hg6 mi
1:00 PM69 °FMild.6 mph67%29.95 "HgN/A
12:00 PM65 °FMild.5 mph67%29.98 "HgN/A
11:00 AM64 °FScattered clouds.3 mph74%29.99 "Hg5 mi
10:00 AM60 °FCool.1 mph82%30.02 "HgN/A
9:00 AM56 °FCool.2 mph93%30.02 "HgN/A
8:00 AM54 °FFog.No wind96%30.03 "Hg4 mi
7:00 AM51 °FCool.1 mph98%30.03 "HgN/A
6:00 AM51 °FCool.No wind98%30.02 "HgN/A
5:00 AM51 °FCool.No wind98%30.03 "HgN/A
4:00 AM53 °FCool.No wind97%30.03 "HgN/A
3:00 AM53 °FCool.No wind97%30.01 "HgN/A
Weather by CustomWeather, © 2014

See weather overviewHow to use our weather pages